Location: �clusier
(49.9361°N, 2.7869°E)
Time: 07:32:45
(UTC+00:00)

Cosmos 2333 Rocket - Pass Details

Date: 16 June 2021
Orbit: 841 x 861 km, 70.8° (Epoch: 03 August)

Event Time Altitude Azimuth Distance (km) Brightness Sun altitude
Exits shadow 21:09:02 - 158° (SSE) 2,544 4.1 -8.5°
Reaches altitude 10° 21:09:13 10° 157° (SSE) 2,488 4.0 -8.5°
Maximum altitude 21:13:50 26° 103° (ESE) 1,633 3.3 -9.0°
Drops below altitude 10° 21:18:27 10° 49° (NE) 2,494 4.7 -9.4°
Sets 21:21:16 0° 37° (NE) 3,432 5.6 -9.6°
